Regional Weather Roundup
Issued by NWS Northern Indiana

Home | Current Version | Previous Version | Text Only | Print | Product List | Glossary Off
Versions: 1 2 3 4 5 6 7 8 9 10 11 12 13 14 15 16 17 18 19 20 21 22 23 24 25 26 27 28 29 30 31 32 33 34 35 36 37 38 39 40 41 42 43 44 45 46 47 48 49 50

000
ASUS43 KIWX 200100
RWRIWX

KIWX WEATHER ROUNDUP
NATIONAL WEATHER SERVICE NORTHERN INDIANA
800 PM EST THU JAN 19 2017

NOTE: "FAIR" INDICATES FEW OR NO CLOUDS BELOW 12,000 FEET WITH NO
SIGNIFICANT WEATHER AND/OR OBSTRUCTIONS TO VISIBILITY.

* THESE STATIONS ARE NOT UNDER NWS QUALITY CONTROL. THEY ALSO MAY NOT
  REPORT WEATHER SUCH AS PRECIPITATION OR FOG.

INZ001>027-200200-
NORTHERN INDIANA

CITY           SKY/WX    TMP DP  RH WIND       PRES   REMARKS
GARY*          LGT RAIN  39  37  93 SE7       29.85S
SOUTH BEND     CLOUDY    37  35  92 SE10      29.88R
ELKHART*       CLOUDY    37  34  87 SE7       29.88R FOG
GOSHEN         LGT RAIN  38  33  82 SE8       29.88R
FORT WAYNE     CLOUDY    40  36  86 E6        29.89S

$$
INZ028>050-200200-
CENTRAL INDIANA

CITY           SKY/WX    TMP DP  RH WIND       PRES   REMARKS
LAFAYETTE      LGT RAIN  41  41 100 E14       29.80F FOG
KOKOMO*        LGT RAIN  40  39  97 E10       29.85F FOG
MUNCIE*        CLOUDY    44  39  82 E6        29.85F
INDIANAPOLIS   RAIN      44  41  89 E13       29.80F FOG

$$
MIZ043>046-050>051-056>058-064>065-071>073-077>080-200200-
SOUTHWEST LOWER MICHIGAN

CITY           SKY/WX    TMP DP  RH WIND       PRES   REMARKS
BATTLE CREEK   CLOUDY    37  34  89 E5        29.88F
BENTON HARBOR  MOCLDY    40  35  83 SE6       29.86F
COLDWATER*     CLOUDY    36  36 100 SE8       29.88F FOG
HILLSDALE*     CLOUDY    34  32  93 SE8       29.89F FOG     WCI  27
HOLLAND        CLOUDY    37  34  89 E7        29.87F
GRAND RAPIDS   CLOUDY    36  32  85 NE7       29.88F
KALAMAZOO      CLOUDY    38  33  82 E5        29.87F HAZE
STURGIS*       CLOUDY    36  34  94 SE7       29.86F FOG
THREE RIVERS*  CLOUDY    36  33  90 SE6       29.87F FOG

$$
OHZ001>008-015>018-024>025-200200-
NORTHWEST OHIO

CITY           SKY/WX    TMP DP  RH WIND       PRES   REMARKS
DEFIANCE       PTCLDY    36  34  92 E6        29.91F
FINDLAY        CLOUDY    39  35  86 E6        29.91F
TOLEDO EXPRESS CLOUDY    35  35 100 CALM      29.93F
TOLEDO METCALF CLOUDY    36  34  92 E3        29.94F
LIMA           PTCLDY    39  37  92 E8        29.89F

$$
AND FOR LAKE MICHIGAN COASTAL AND OPEN LAKE BUOY OBSERVATIONS

STATION/POSITION TEMP    WIND        PRES    VSBY  WAVE
                 AIR SEA DIR/SP/G                  HT/PER
                 (F)     (DEG/KT/KT) (MB)    (MI)  (FT/S)
CALUMET HARBOR    35      80/  5/  7 1010.0F
MICHIGAN CITY     39      90/  6/  8   N/A
BURNS HARBOR      39     110/ 12/ 15 1011.5F

$$
&&



USA.gov is the U.S. government's official web portal to all federal, state and local government web resources and services.